Temp
14 12 13 13 13 13 13 13 12 12 12 12 12 12 11 11 11 10 10 10 11 11
13 13 13 13 13 13 13 13 13 12 12 12 12 12 11 11 11 11 10 10 10 10
12 12 13 13 13 12 12 12 12 12 12 12 12 12 12 11 11 10 11 11 10 10
10 11 11 12 13 12 12 11 12 12 12 11 12 12 12 12 11 11 11 11 10 11
11 10 11 11 12 12 12 12 12 12 11 11 11 12 12 12 12 12 12 11 11 11
11 11 10 11 11 12 12 12 12 12 12 11 11 11 11 12 12 12 12 12 11 12
13 12 11 11 11 11 11 11 11 12 12 12 11 11 11 11 11 12 12 12 12 13
11 12 11 11 10 11 10 11 11 11 12 12 12 11 11 10 11 11 12 12 13 13
9 10 11 11 10 10 11 12 11 11 12 12 12 12 11 11 11 11 12 12 13 13
6 8 9 9 10 10 10 11 12 12 12 12 12 12 12 12 12 11 12 13 13 13
3 4 6 8 10 9 10 11 12 12 12 12 12 12 12 12 12 12 12 12 12 12
4 4 4 6 8 9 11 12 12 12 12 12 12 12 12 12 11 11 11 11 11 11
3 4 4 6 7 9 10 11 12 12 11 11 11 11 11 11 11 10 10 10 11 11
2 3 4 6 7 8 9 10 10 11 11 10 10 10 10 10 10 10 10 10 11 10
Height
1535 1539 1543 1547 1550 1553 1557 1559 1563 1565 1568 1571 1573 1575 1579 1581 1582 1583 1583 1584 1586 1587
1533 1535 1538 1542 1545 1547 1551 1555 1558 1561 1564 1565 1568 1569 1572 1574 1575 1577 1579 1579 1581 1581
1527 1531 1534 1537 1539 1541 1544 1548 1552 1555 1557 1560 1562 1564 1565 1567 1569 1571 1572 1573 1574 1574
1522 1522 1528 1531 1534 1537 1540 1541 1544 1547 1550 1552 1555 1557 1558 1560 1561 1563 1564 1566 1567 1567
1519 1521 1522 1526 1528 1531 1533 1535 1537 1539 1541 1543 1545 1548 1550 1552 1552 1553 1555 1556 1557 1558
1514 1516 1518 1520 1521 1525 1527 1529 1531 1532 1534 1535 1537 1539 1541 1543 1545 1545 1546 1546 1546 1548
1507 1511 1512 1514 1516 1515 1520 1521 1524 1525 1527 1528 1530 1531 1533 1534 1536 1537 1537 1537 1537 1538
1499 1502 1505 1507 1509 1510 1512 1514 1516 1518 1519 1520 1521 1522 1524 1525 1525 1527 1528 1529 1528 1528
1491 1493 1495 1497 1499 1502 1504 1506 1508 1509 1511 1512 1513 1513 1516 1517 1517 1517 1518 1518 1519 1519
1484 1484 1485 1486 1491 1493 1495 1499 1500 1501 1502 1503 1504 1505 1507 1509 1508 1508 1508 1508 1509 1509
1478 1477 1477 1479 1481 1485 1487 1489 1491 1493 1495 1496 1496 1497 1498 1500 1499 1499 1498 1498 1498 1497
1474 1472 1471 1472 1474 1477 1478 1480 1482 1485 1487 1488 1488 1491 1491 1493 1491 1489 1488 1488 1488 1487
1467 1466 1466 1468 1469 1470 1471 1472 1475 1477 1479 1481 1481 1483 1483 1484 1481 1478 1479 1478 1476 1476
1462 1461 1462 1463 1463 1464 1465 1466 1467 1470 1472 1473 1472 1472 1470 1470 1470 1469 1468 1467 1465 1464
Wind_Speed
29 37 31 34 37 44 39 35 34 34 32 37 37 36 38 37 37 36 36 36 35 33
31 32 26 30 35 39 43 40 35 35 34 32 35 35 39 39 38 36 39 40 40 39
32 33 34 28 30 36 39 40 38 35 35 33 30 35 36 40 40 40 39 38 42 45
24 29 33 36 34 31 32 38 41 42 40 37 34 32 36 38 40 42 41 41 39 42
19 26 26 32 33 34 34 35 36 38 41 40 38 37 35 37 38 39 40 44 44 42
18 17 25 28 31 32 34 34 36 39 37 41 40 41 40 38 38 37 36 40 44 44
31 27 22 24 29 26 33 35 34 36 40 43 41 41 42 42 42 42 42 41 42 40
29 34 33 29 29 32 30 33 37 39 36 39 43 43 42 43 48 48 46 44 44 44
28 29 31 34 35 32 33 32 32 35 36 35 42 44 40 41 43 44 44 44 44 44
27 31 31 32 34 34 34 37 35 33 35 36 36 40 42 41 40 42 44 44 43 44
25 27 29 31 32 29 30 35 35 33 34 35 35 35 36 37 40 44 47 49 52 53
21 22 22 24 25 25 27 31 32 31 32 34 36 34 36 36 40 45 47 49 50 52
15 17 19 19 20 23 23 29 30 32 33 31 32 32 33 35 35 39 43 46 50 54
8 11 14 16 20 21 20 23 29 30 26 26 27 28 26 24 27 34 39 42 47 48
Wind_Direction
237 224 233 234 236 232 232 238 240 237 238 235 237 237 237 239 242 245 243 243 245 246
242 238 235 233 233 237 240 242 245 241 242 246 245 244 241 241 243 245 249 249 248 249
236 244 236 238 241 238 241 244 245 246 243 243 250 248 247 247 247 247 249 252 254 251
230 228 248 242 244 243 246 245 244 245 249 250 250 251 250 252 253 252 252 251 252 262
230 236 241 247 246 245 248 248 250 250 250 252 253 252 254 254 255 255 255 254 252 255
259 247 241 244 252 248 249 251 255 255 250 251 249 255 257 256 257 257 269 265 259 259
247 255 249 250 245 259 249 252 255 260 260 257 255 256 255 257 256 258 269 267 261 263
247 248 248 247 249 251 251 248 252 260 265 259 262 257 258 256 257 259 262 266 263 263
265 257 252 253 250 255 254 253 256 258 262 266 262 262 265 267 263 260 263 266 259 263
269 262 256 254 253 252 259 258 255 258 260 266 271 264 265 267 271 271 266 266 266 266
278 271 265 261 254 256 261 258 259 258 260 264 269 269 265 267 270 270 271 274 274 272
275 273 272 268 257 260 258 254 256 261 264 265 268 271 268 270 270 270 270 272 273 273
272 268 267 269 253 256 256 255 253 258 264 268 273 276 275 273 274 273 274 275 273 273
274 265 259 262 257 257 255 257 248 250 255 263 267 271 269 269 275 279 276 278 275 276